Date String (YYYY-MM-DD hh:mm:ss) UTC,Instrument flags,absolute air pressure of the measurement (hPa),sample flow rate (lpm),inlet stack bypass flow (lpm),air temperature of the measurement (°C),ambient temperature measured by the external sensor (°C),aerosol sample conditioner tube jacket temperature (°C),OPC LED temperature (°C),internal box temperature (°C),relative humidity of the measurement (%),span deviation,mass concentration of particles derived from Lorenz-Mie calculation of OPC scattering (μg/m³),mass concentration of particles derived from Lorenz-Mie calculation of OPC scattering (μg/m³),mass concentration of particles derived from Lorenz-Mie calculation of OPC scattering (μg/m³)
DateTimeUTC,F1_M11,P_M11,Q1_M11,Q2_M11,T1_M11,T2_M11,T3_M11,T4_M11,T5_M11,U1_M11,ZSPAN_M11,X2_M11,X0_M11,X1_M11
2023-10-25 21:00:00,SystemResetWarning,0823.8,5.01,000.00,028.8,027.5,000.0,037.1,030.6,22.8,-002.5,0016.80,0031.41,0014.51
2023-10-25 21:01:00,SystemResetWarning,0823.8,5.00,000.00,028.8,027.6,000.0,037.2,030.7,22.7,-002.4,0016.81,0031.33,0014.49
2023-10-25 21:02:00,SystemResetWarning,0823.8,4.98,000.00,028.9,027.7,000.0,037.2,030.7,22.6,-002.4,0016.79,0031.42,0014.49
2023-10-25 21:03:00,SystemResetWarning,0823.8,5.00,000.00,028.9,027.8,000.0,037.2,030.8,22.6,-002.3,0016.70,0030.85,0014.48
2023-10-25 21:04:00,SystemResetWarning,0823.8,5.01,000.00,028.9,027.9,000.0,037.2,030.8,22.4,-002.3,0016.68,0030.33,0014.46
2023-10-25 21:05:00,SystemResetWarning,0823.8,5.01,000.00,029.0,028.0,000.0,037.2,030.8,22.3,-002.4,0016.68,0030.18,0014.47
2023-10-25 21:06:00,SystemResetWarning,0823.8,4.99,000.00,029.0,028.1,000.0,037.3,030.9,22.4,-002.4,0016.71,0029.38,0014.48
2023-10-25 21:07:00,SystemResetWarning,0823.9,4.99,000.00,029.1,028.0,000.0,037.3,030.9,22.3,-002.4,0016.70,0030.05,0014.47
2023-10-25 21:08:00,SystemResetWarning,0823.8,4.99,000.00,029.1,026.3,000.0,037.3,030.8,22.4,-002.1,0016.73,0029.70,0014.50
2023-10-25 21:09:00,SystemResetWarning,0823.8,5.01,000.00,029.0,025.1,000.0,037.2,030.6,22.5,-002.1,0016.74,0028.98,0014.50
2023-10-25 21:10:00,SystemResetWarning,0823.8,5.01,000.00,028.9,025.1,000.0,037.2,030.4,22.7,-002.1,0016.76,0028.89,0014.54
2023-10-25 21:11:00,SystemResetWarning,0823.8,5.00,000.00,028.8,025.4,000.0,037.2,030.3,22.7,-002.2,0016.63,0029.18,0014.54
2023-10-25 21:12:00,SystemResetWarning,0823.8,4.99,000.00,028.8,025.8,000.0,037.3,030.3,22.7,-002.1,0016.65,0029.61,0014.57
2023-10-25 21:13:00,SystemResetWarning,0823.8,5.00,000.00,028.8,026.2,000.0,037.3,030.4,22.7,-002.2,0016.70,0030.32,0014.61
2023-10-25 21:14:00,SystemResetWarning,0823.8,5.00,000.00,028.8,026.6,000.0,037.2,030.5,22.7,-002.4,0016.69,0031.21,0014.60
2023-10-25 21:15:00,SystemResetWarning,0823.8,5.01,000.00,028.8,026.9,000.0,037.2,030.5,22.7,-002.5,0016.69,0031.32,0014.61
2023-10-25 21:16:00,SystemResetWarning,0823.8,4.99,000.00,028.8,027.1,000.0,037.2,030.6,22.6,-002.6,0016.65,0031.13,0014.60
2023-10-25 21:17:00,SystemResetWarning,0823.7,4.99,000.00,028.9,027.3,000.0,037.2,030.6,22.5,-002.4,0016.61,0030.81,0014.58
2023-10-25 21:18:00,SystemResetWarning,0823.8,5.00,000.00,028.9,027.5,000.0,037.2,030.7,22.4,-002.5,0016.57,0030.84,0014.57
2023-10-25 21:19:00,SystemResetWarning,0823.8,5.01,000.00,028.9,027.7,000.0,037.3,030.8,22.5,-002.7,0016.53,0030.52,0014.54
2023-10-25 21:20:00,SystemResetWarning,0823.8,5.00,000.00,029.0,027.9,000.0,037.3,030.8,22.5,-002.9,0016.50,0031.09,0014.50
2023-10-25 21:21:00,SystemResetWarning,0823.8,5.00,000.00,029.0,028.0,000.0,037.3,030.9,22.3,-002.9,0016.47,0031.00,0014.51
2023-10-25 21:22:00,SystemResetWarning,0823.8,5.00,000.00,029.1,028.1,000.0,037.3,030.9,22.2,-002.7,0016.52,0030.91,0014.51
2023-10-25 21:23:00,SystemResetWarning,0823.8,5.00,000.00,029.1,028.0,000.0,037.3,031.0,22.2,-002.7,0016.54,0030.43,0014.52
2023-10-25 21:24:00,SystemResetWarning,0823.8,4.98,000.00,029.1,026.4,000.0,037.3,030.8,22.3,-002.8,0016.56,0031.29,0014.52
2023-10-25 21:25:00,SystemResetWarning,0823.7,5.01,000.00,029.0,024.6,000.0,037.3,030.5,22.5,-002.7,0016.60,0030.56,0014.55
2023-10-25 21:26:00,SystemResetWarning,0823.7,5.01,000.00,028.9,024.2,000.0,037.2,030.3,22.6,-002.7,0016.64,0030.04,0014.59
2023-10-25 21:27:00,SystemResetWarning,0823.7,5.00,000.00,028.7,024.5,000.0,037.2,030.1,22.8,-002.7,0016.68,0029.53,0014.59
2023-10-25 21:28:00,SystemResetWarning,0823.7,4.99,000.00,028.7,024.9,000.0,037.2,030.1,23.0,-002.9,0016.66,0029.11,0014.60
2023-10-25 21:29:00,SystemResetWarning,0823.7,5.00,000.00,028.6,025.4,000.0,037.2,030.1,23.1,-003.0,0016.67,0028.92,0014.63
2023-10-25 21:30:00,SystemResetWarning,0823.7,5.01,000.00,028.6,025.9,000.0,037.2,030.2,22.9,-003.0,0016.65,0028.65,0014.66
2023-10-25 21:31:00,SystemResetWarning,0823.6,5.00,000.00,028.6,026.3,000.0,037.2,030.3,23.0,-002.9,0016.63,0027.74,0014.68
2023-10-25 21:32:00,SystemResetWarning,0823.6,5.00,000.00,028.6,026.6,000.0,037.1,030.4,23.2,-002.9,0016.66,0027.75,0014.68
2023-10-25 21:33:00,SystemResetWarning,0823.6,5.01,000.00,028.7,026.9,000.0,037.1,030.4,23.2,-003.0,0016.70,0027.30,0014.67
2023-10-25 21:34:00,SystemResetWarning,0823.6,5.00,000.00,028.7,027.2,000.0,037.2,030.5,23.0,-003.0,0016.69,0027.40,0014.67
2023-10-25 21:35:00,SystemResetWarning,0823.6,5.00,000.00,028.8,027.4,000.0,037.2,030.6,22.9,-002.9,0016.64,0026.72,0014.67
2023-10-25 21:36:00,SystemResetWarning,0823.6,5.00,000.00,028.8,027.6,000.0,037.2,030.7,22.8,-002.8,0016.65,0026.12,0014.66
2023-10-25 21:37:00,SystemResetWarning,0823.6,5.01,000.00,028.8,027.7,000.0,037.2,030.7,22.7,-002.7,0016.62,0026.25,0014.62
2023-10-25 21:38:00,SystemResetWarning,0823.7,5.00,000.00,028.9,027.8,000.0,037.2,030.8,22.6,-002.7,0016.56,0026.71,0014.60
2023-10-25 21:39:00,SystemResetWarning,0823.7,5.00,000.00,028.9,027.9,000.0,037.2,030.8,22.6,-002.6,0016.58,0027.26,0014.61
2023-10-25 21:40:00,SystemResetWarning,0823.7,4.99,000.00,029.0,028.0,000.0,037.2,030.9,22.6,-002.5,0016.64,0027.08,0014.63
2023-10-25 21:41:00,SystemResetWarning,0823.7,4.99,000.00,029.0,027.5,000.0,037.3,030.9,22.5,-002.2,0016.72,0026.74,0014.62
2023-10-25 21:42:00,SystemResetWarning,0823.6,5.00,000.00,029.0,025.4,000.0,037.2,030.6,22.5,-002.3,0016.79,0026.78,0014.62
2023-10-25 21:43:00,SystemResetWarning,0823.6,5.01,000.00,028.8,024.2,000.0,037.2,030.3,22.7,-002.6,0016.73,0026.94,0014.63
2023-10-25 21:44:00,SystemResetWarning,0823.5,5.02,000.00,028.7,024.2,000.0,037.1,030.1,22.8,-002.8,0016.71,0027.66,0014.65
2023-10-25 21:45:00,SystemResetWarning,0823.6,4.99,000.00,028.6,024.6,000.0,037.1,030.0,23.0,-002.8,0016.75,0028.55,0014.67
2023-10-25 21:46:00,SystemResetWarning,0823.6,4.99,000.00,028.6,025.1,000.0,037.1,030.0,23.0,-002.9,0016.75,0028.77,0014.67
2023-10-25 21:47:00,SystemResetWarning,0823.6,5.00,000.00,028.5,025.6,000.0,037.1,030.1,23.0,-003.2,0016.71,0029.30,0014.66
2023-10-25 21:48:00,SystemResetWarning,0823.6,5.00,000.00,028.5,026.0,000.0,037.1,030.2,23.0,-003.6,0016.77,0029.11,0014.72
2023-10-25 21:49:00,SystemResetWarning,0823.6,5.00,000.00,028.6,026.4,000.0,037.0,030.3,23.1,-003.6,0016.85,0028.35,0014.76
2023-10-25 21:50:00,SystemResetWarning,0823.6,5.00,000.00,028.6,026.7,000.0,037.0,030.3,23.0,-003.7,0016.82,0028.29,0014.79
2023-10-25 21:51:00,SystemResetWarning,0823.7,5.00,000.00,028.6,027.0,000.0,037.1,030.4,22.9,-003.9,0016.83,0028.61,0014.81
2023-10-25 21:52:00,SystemResetWarning,0823.7,5.01,000.00,028.7,027.2,000.0,037.1,030.5,22.8,-003.8,0016.84,0028.80,0014.84
2023-10-25 21:53:00,SystemResetWarning,0823.6,5.00,000.00,028.7,027.4,000.0,037.1,030.6,22.8,-003.8,0016.82,0029.40,0014.86
2023-10-25 21:54:00,SystemResetWarning,0823.7,5.00,000.00,028.8,027.6,000.0,037.1,030.6,22.8,-003.5,0016.92,0030.19,0014.87
2023-10-25 21:55:00,SystemResetWarning,0823.7,5.00,000.00,028.8,027.7,000.0,037.1,030.7,22.7,-003.4,0016.92,0029.82,0014.86
2023-10-25 21:56:00,SystemResetWarning,0823.7,5.00,000.00,028.8,027.8,000.0,037.1,030.7,22.7,-003.3,0016.83,0029.12,0014.83
2023-10-25 21:57:00,SystemResetWarning,0823.7,4.99,000.00,028.9,027.9,000.0,037.1,030.8,22.6,-003.3,0016.89,0028.82,0014.84
2023-10-25 21:58:00,SystemResetWarning,0823.7,4.99,000.00,028.9,028.0,000.0,037.2,030.8,22.5,-003.0,0016.95,0027.65,0014.87
2023-10-25 21:59:00,SystemResetWarning,0823.7,4.99,000.00,028.9,026.7,000.0,037.2,030.7,22.5,-002.7,0016.95,0027.80,0014.86
